date,time,SUV Intensity [MED/Hr],UV Index,Daily total [MED],Since Last [MED]
09/08/2022,00:11:33,0.000,0.0,0.0,0.0
09/08/2022,00:12:25,-0.001,0.0,0.0,0.0
09/08/2022,00:13:25,0.000,0.0,0.0,0.0
09/08/2022,00:14:25,0.000,0.0,0.0,0.0
09/08/2022,00:15:25,-0.001,0.0,0.0,0.0
09/08/2022,00:16:25,0.001,0.0,0.0,0.0
09/08/2022,00:17:27,0.001,0.0,0.0,0.0
09/08/2022,00:18:25,-0.001,0.0,0.0,0.0
09/08/2022,00:19:33,0.000,0.0,0.0,0.0
09/08/2022,00:20:23,0.000,0.0,0.0,0.0
09/08/2022,00:21:25,-0.000,0.0,0.0,0.0
09/08/2022,00:22:33,0.000,0.0,0.0,0.0
09/08/2022,00:23:24,0.000,0.0,0.0,0.0
09/08/2022,00:24:33,0.001,0.0,0.0,0.0
09/08/2022,00:25:25,-0.001,0.0,0.0,0.0
09/08/2022,00:26:25,0.001,0.0,0.0,0.0
09/08/2022,00:27:34,0.000,0.0,0.0,0.0
09/08/2022,00:28:25,0.000,0.0,0.0,0.0
09/08/2022,00:29:25,-0.001,0.0,0.0,0.0
09/08/2022,00:30:25,0.000,0.0,0.0,0.0
09/08/2022,00:31:25,0.000,0.0,0.0,0.0
09/08/2022,00:32:25,0.001,0.0,0.0,0.0
09/08/2022,00:33:25,0.000,0.0,0.0,0.0
09/08/2022,00:34:25,0.000,0.0,0.0,0.0
09/08/2022,00:35:27,0.000,0.0,0.0,0.0
09/08/2022,00:36:25,0.000,0.0,0.0,0.0
09/08/2022,00:37:25,0.000,0.0,0.0,0.0
09/08/2022,00:38:25,0.000,0.0,0.0,0.0
09/08/2022,00:39:25,0.001,0.0,0.0,0.0
09/08/2022,00:40:25,0.000,0.0,0.0,0.0
09/08/2022,00:41:25,0.000,0.0,0.0,0.0
09/08/2022,00:42:25,-0.001,0.0,0.0,0.0
09/08/2022,00:43:25,-0.001,0.0,0.0,0.0
09/08/2022,00:44:25,0.000,0.0,0.0,0.0
09/08/2022,00:45:25,0.000,0.0,0.0,0.0
09/08/2022,00:46:25,0.001,0.0,0.0,0.0
09/08/2022,00:47:25,0.000,0.0,0.0,0.0
09/08/2022,00:48:25,0.000,0.0,0.0,0.0
09/08/2022,00:49:41,0.001,0.0,0.0,0.0
09/08/2022,00:51:26,-0.000,0.0,0.0,0.0
09/08/2022,00:52:25,-0.000,0.0,0.0,0.0
09/08/2022,00:53:25,-0.000,0.0,0.0,0.0
09/08/2022,00:54:25,0.000,0.0,0.0,0.0
09/08/2022,00:55:25,0.001,0.0,0.0,0.0
09/08/2022,00:56:25,0.001,0.0,0.0,0.0
09/08/2022,00:57:24,0.000,0.0,0.0,0.0
09/08/2022,00:58:33,-0.000,0.0,0.0,0.0
09/08/2022,00:59:25,0.000,0.0,0.0,0.0
09/08/2022,01:00:25,0.001,0.0,0.0,0.0
09/08/2022,01:01:25,0.001,0.0,0.0,0.0
09/08/2022,01:02:25,0.000,0.0,0.0,0.0
09/08/2022,01:03:33,0.000,0.0,0.0,0.0
09/08/2022,01:04:25,0.001,0.0,0.0,0.0
09/08/2022,01:05:25,0.000,0.0,0.0,0.0
09/08/2022,01:06:33,0.001,0.0,0.0,0.0
09/08/2022,01:07:25,-0.001,0.0,0.0,0.0
09/08/2022,01:08:25,0.001,0.0,0.0,0.0
09/08/2022,01:09:25,0.001,0.0,0.0,0.0
09/08/2022,01:10:25,0.000,0.0,0.0,0.0
09/08/2022,01:11:25,0.001,0.0,0.0,0.0
09/08/2022,01:12:25,0.001,0.0,0.0,0.0
09/08/2022,01:13:25,0.001,0.0,0.0,0.0
09/08/2022,01:14:33,-0.000,0.0,0.0,0.0
09/08/2022,01:15:25,0.000,0.0,0.0,0.0
09/08/2022,01:16:25,0.001,0.0,0.0,0.0
09/08/2022,01:17:34,0.001,0.0,0.0,0.0
09/08/2022,01:18:25,0.001,0.0,0.0,0.0
09/08/2022,01:19:25,0.001,0.0,0.0,0.0
09/08/2022,01:20:26,0.001,0.0,0.0,0.0
09/08/2022,01:21:25,0.001,0.0,0.0,0.0
09/08/2022,01:22:25,0.001,0.0,0.0,0.0
09/08/2022,01:23:25,0.000,0.0,0.0,0.0
09/08/2022,01:24:25,0.001,0.0,0.0,0.0
09/08/2022,01:25:25,0.000,0.0,0.0,0.0
09/08/2022,01:26:25,0.001,0.0,0.0,0.0
09/08/2022,01:27:25,0.001,0.0,0.0,0.0
09/08/2022,01:28:25,0.001,0.0,0.0,0.0
09/08/2022,01:29:25,0.001,0.0,0.0,0.0
09/08/2022,01:30:25,0.001,0.0,0.0,0.0
09/08/2022,01:31:26,0.001,0.0,0.0,0.0
09/08/2022,01:32:25,0.001,0.0,0.0,0.0
09/08/2022,01:33:25,0.001,0.0,0.0,0.0
09/08/2022,01:34:25,0.000,0.0,0.0,0.0
09/08/2022,01:35:25,0.001,0.0,0.0,0.0
09/08/2022,01:36:25,0.001,0.0,0.0,0.0
09/08/2022,01:37:25,0.001,0.0,0.0,0.0
09/08/2022,01:38:25,0.001,0.0,0.0,0.0
09/08/2022,01:39:25,0.001,0.0,0.0,0.0
09/08/2022,01:40:25,0.001,0.0,0.0,0.0
09/08/2022,01:41:25,0.001,0.0,0.0,0.0
09/08/2022,01:42:25,0.001,0.0,0.0,0.0
09/08/2022,01:43:25,0.001,0.0,0.0,0.0
09/08/2022,01:44:25,0.001,0.0,0.0,0.0
09/08/2022,01:45:25,0.001,0.0,0.0,0.0
09/08/2022,01:46:25,0.001,0.0,0.0,0.0
09/08/2022,01:47:25,0.001,0.0,0.0,0.0
09/08/2022,01:48:25,0.001,0.0,0.0,0.0
09/08/2022,01:49:25,0.001,0.0,0.0,0.0
09/08/2022,01:50:25,0.001,0.0,0.0,0.0
09/08/2022,01:51:25,0.001,0.0,0.0,0.0
09/08/2022,01:52:25,0.001,0.0,0.0,0.0
09/08/2022,01:53:25,0.001,0.0,0.0,0.0
09/08/2022,01:54:25,0.001,0.0,0.0,0.0
09/08/2022,01:55:25,0.001,0.0,0.0,0.0
09/08/2022,01:56:34,0.001,0.0,0.0,0.0
09/08/2022,01:57:25,0.001,0.0,0.0,0.0
09/08/2022,01:58:25,0.001,0.0,0.0,0.0
09/08/2022,01:59:25,0.001,0.0,0.0,0.0
09/08/2022,02:00:25,0.001,0.0,0.0,0.0
09/08/2022,02:01:33,0.001,0.0,0.0,0.0
09/08/2022,02:02:25,0.001,0.0,0.0,0.0
09/08/2022,02:03:25,0.001,0.0,0.0,0.0
09/08/2022,02:04:25,0.001,0.0,0.0,0.0
09/08/2022,02:05:25,0.001,0.0,0.0,0.0
09/08/2022,02:06:25,0.001,0.0,0.0,0.0
09/08/2022,02:07:25,0.001,0.0,0.0,0.0
09/08/2022,02:08:26,0.002,0.0,0.0,0.0
09/08/2022,02:09:33,0.001,0.0,0.0,0.0
09/08/2022,02:10:25,0.001,0.0,0.0,0.0
09/08/2022,02:11:25,0.001,0.0,0.0,0.0
09/08/2022,02:12:34,0.001,0.0,0.0,0.0
09/08/2022,02:13:25,0.001,0.0,0.0,0.0
09/08/2022,02:14:25,0.001,0.0,0.0,0.0
09/08/2022,02:15:25,0.002,0.0,0.0,0.0
09/08/2022,02:16:25,0.001,0.0,0.0,0.0
09/08/2022,02:17:25,0.002,0.0,0.0,0.0
09/08/2022,02:18:25,0.002,0.0,0.0,0.0
09/08/2022,02:19:25,0.002,0.0,0.0,0.0
09/08/2022,02:20:26,0.001,0.0,0.0,0.0
09/08/2022,02:21:25,0.002,0.0,0.0,0.0
09/08/2022,02:22:25,0.001,0.0,0.0,0.0
09/08/2022,02:23:25,0.002,0.0,0.0,0.0
09/08/2022,02:24:25,0.001,0.0,0.0,0.0
09/08/2022,02:25:25,0.002,0.0,0.0,0.0
09/08/2022,02:26:25,0.001,0.0,0.0,0.0
09/08/2022,02:27:25,0.002,0.0,0.0,0.0
09/08/2022,02:28:25,0.002,0.0,0.0,0.0
09/08/2022,02:29:25,0.002,0.0,0.0,0.0
09/08/2022,02:30:25,0.002,0.0,0.0,0.0
09/08/2022,02:31:25,0.002,0.0,0.0,0.0
09/08/2022,02:32:25,0.002,0.0,0.0,0.0
09/08/2022,02:33:25,0.002,0.0,0.0,0.0
09/08/2022,02:34:25,0.002,0.0,0.0,0.0
09/08/2022,02:35:33,0.002,0.0,0.0,0.0
09/08/2022,02:36:25,0.002,0.0,0.0,0.0
09/08/2022,02:37:25,0.002,0.0,0.0,0.0
09/08/2022,02:38:25,0.002,0.0,0.0,0.0
09/08/2022,02:39:25,0.002,0.0,0.0,0.0
09/08/2022,02:40:26,0.002,0.0,0.0,0.0
09/08/2022,02:41:25,0.002,0.0,0.0,0.0
09/08/2022,02:42:25,0.002,0.0,0.0,0.0
09/08/2022,02:43:34,0.002,0.0,0.0,0.0
09/08/2022,02:44:25,0.002,0.0,0.0,0.0
09/08/2022,02:45:25,0.002,0.0,0.0,0.0
09/08/2022,02:46:33,0.001,0.0,0.0,0.0
09/08/2022,02:47:25,0.001,0.0,0.0,0.0
09/08/2022,02:48:26,0.001,0.0,0.0,0.0
09/08/2022,02:49:25,0.001,0.0,0.0,0.0
09/08/2022,02:50:25,0.001,0.0,0.0,0.0
09/08/2022,02:51:34,0.001,0.0,0.0,0.0
09/08/2022,02:52:25,0.002,0.0,0.0,0.0
09/08/2022,02:53:26,0.002,0.0,0.0,0.0
09/08/2022,02:54:25,0.002,0.0,0.0,0.0
09/08/2022,02:55:25,0.001,0.0,0.0,0.0
09/08/2022,02:56:26,0.001,0.0,0.0,0.0
09/08/2022,02:57:25,0.001,0.0,0.0,0.0
09/08/2022,02:58:25,0.001,0.0,0.0,0.0
09/08/2022,02:59:25,0.001,0.0,0.0,0.0
09/08/2022,03:00:25,0.002,0.0,0.0,0.0
09/08/2022,03:01:25,0.002,0.0,0.0,0.0
09/08/2022,03:02:25,0.002,0.0,0.0,0.0
09/08/2022,03:03:25,0.002,0.0,0.0,0.0
09/08/2022,03:04:25,0.002,0.0,0.0,0.0
09/08/2022,03:05:33,0.002,0.0,0.0,0.0
09/08/2022,03:06:26,0.002,0.0,0.0,0.0
09/08/2022,03:07:25,0.002,0.0,0.0,0.0
09/08/2022,03:08:25,0.002,0.0,0.0,0.0
09/08/2022,03:09:25,0.002,0.0,0.0,0.0
09/08/2022,03:10:26,0.002,0.0,0.0,0.0
09/08/2022,03:11:25,0.002,0.0,0.0,0.0
09/08/2022,03:12:26,0.001,0.0,0.0,0.0
09/08/2022,03:13:25,0.002,0.0,0.0,0.0
09/08/2022,03:14:25,0.002,0.0,0.0,0.0
09/08/2022,03:15:25,0.002,0.0,0.0,0.0
09/08/2022,03:16:26,0.002,0.0,0.0,0.0
09/08/2022,03:17:25,0.002,0.0,0.0,0.0
09/08/2022,03:18:25,0.001,0.0,0.0,0.0
09/08/2022,03:19:25,0.002,0.0,0.0,0.0
09/08/2022,03:20:25,0.002,0.0,0.0,0.0
09/08/2022,03:21:25,0.001,0.0,0.0,0.0
09/08/2022,03:22:50,0.002,0.0,0.0,0.0
09/08/2022,03:24:26,0.001,0.0,0.0,0.0
09/08/2022,03:25:25,0.002,0.0,0.0,0.0
09/08/2022,03:26:25,0.002,0.0,0.0,0.0
09/08/2022,03:27:25,0.002,0.0,0.0,0.0
09/08/2022,03:28:33,0.002,0.0,0.0,0.0
09/08/2022,03:29:25,0.002,0.0,0.0,0.0
09/08/2022,03:30:25,0.002,0.0,0.0,0.0
09/08/2022,03:31:33,0.002,0.0,0.0,0.0
09/08/2022,03:32:25,0.001,0.0,0.0,0.0
09/08/2022,03:33:26,0.002,0.0,0.0,0.0
09/08/2022,03:34:25,0.002,0.0,0.0,0.0
09/08/2022,03:35:26,0.002,0.0,0.0,0.0
09/08/2022,03:36:25,0.002,0.0,0.0,0.0
09/08/2022,03:37:25,0.001,0.0,0.0,0.0
09/08/2022,03:38:26,0.002,0.0,0.0,0.0
09/08/2022,03:39:34,0.002,0.0,0.0,0.0
09/08/2022,03:40:25,0.002,0.0,0.0,0.0
09/08/2022,03:41:25,0.002,0.0,0.0,0.0
09/08/2022,03:42:33,0.003,0.0,0.0,0.0
09/08/2022,03:43:25,0.002,0.0,0.0,0.0
09/08/2022,03:44:25,0.002,0.0,0.0,0.0
09/08/2022,03:45:33,0.002,0.0,0.0,0.0
09/08/2022,03:46:26,0.002,0.0,0.0,0.0
09/08/2022,03:47:34,0.002,0.0,0.0,0.0
09/08/2022,03:48:26,0.002,0.0,0.0,0.0
09/08/2022,03:49:26,0.001,0.0,0.0,0.0
09/08/2022,03:50:34,0.003,0.0,0.0,0.0
09/08/2022,03:51:25,0.002,0.0,0.0,0.0
09/08/2022,03:52:25,0.002,0.0,0.0,0.0
09/08/2022,03:53:26,0.001,0.0,0.0,0.0
09/08/2022,03:54:25,0.002,0.0,0.0,0.0
09/08/2022,03:55:25,0.002,0.0,0.0,0.0
09/08/2022,03:56:25,0.002,0.0,0.0,0.0
09/08/2022,03:57:25,0.002,0.0,0.0,0.0
09/08/2022,03:58:26,0.002,0.0,0.0,0.0
09/08/2022,03:59:25,0.002,0.0,0.0,0.0
09/08/2022,04:00:25,0.002,0.0,0.0,0.0
09/08/2022,04:01:33,0.002,0.0,0.0,0.0
09/08/2022,04:02:25,0.002,0.0,0.0,0.0
09/08/2022,04:03:25,0.002,0.0,0.0,0.0
09/08/2022,04:04:33,0.002,0.0,0.0,0.0
09/08/2022,04:05:25,0.002,0.0,0.0,0.0
09/08/2022,04:06:25,0.002,0.0,0.0,0.0
09/08/2022,04:07:25,0.002,0.0,0.0,0.0
09/08/2022,04:08:26,0.003,0.0,0.0,0.0
09/08/2022,04:09:25,0.002,0.0,0.0,0.0
09/08/2022,04:10:25,0.002,0.0,0.0,0.0
09/08/2022,04:11:25,0.002,0.0,0.0,0.0
09/08/2022,04:12:25,0.002,0.0,0.0,0.0
09/08/2022,04:13:26,0.002,0.0,0.0,0.0
09/08/2022,04:14:25,0.002,0.0,0.0,0.0
09/08/2022,04:15:25,0.002,0.0,0.0,0.0
09/08/2022,04:16:25,0.001,0.0,0.0,0.0
09/08/2022,04:17:26,0.001,0.0,0.0,0.0
09/08/2022,04:18:25,0.002,0.0,0.0,0.0
09/08/2022,04:19:25,0.003,0.0,0.0,0.0
09/08/2022,04:20:26,0.001,0.0,0.0,0.0
09/08/2022,04:21:25,0.001,0.0,0.0,0.0
09/08/2022,04:22:26,0.003,0.0,0.0,0.0
09/08/2022,04:23:25,0.002,0.0,0.0,0.0
09/08/2022,04:24:25,0.002,0.0,0.0,0.0
09/08/2022,04:25:25,0.002,0.0,0.0,0.0
09/08/2022,04:26:25,0.003,0.0,0.0,0.0
09/08/2022,04:27:34,0.002,0.0,0.0,0.0
09/08/2022,04:28:26,0.002,0.0,0.0,0.0
09/08/2022,04:29:25,0.002,0.0,0.0,0.0
09/08/2022,04:30:26,0.002,0.0,0.0,0.0
09/08/2022,04:31:25,0.002,0.0,0.0,0.0
09/08/2022,04:32:25,0.002,0.0,0.0,0.0
09/08/2022,04:33:26,0.003,0.0,0.0,0.0
09/08/2022,04:34:26,0.002,0.0,0.0,0.0
09/08/2022,04:35:26,0.003,0.0,0.0,0.0
09/08/2022,04:36:25,0.003,0.0,0.0,0.0
09/08/2022,04:37:25,0.002,0.0,0.0,0.0
09/08/2022,04:38:34,0.003,0.0,0.0,0.0
09/08/2022,04:39:25,0.003,0.0,0.0,0.0
09/08/2022,04:40:26,0.004,0.0,0.0,0.0
09/08/2022,04:41:33,0.004,0.0,0.0,0.0
09/08/2022,04:42:25,0.002,0.0,0.0,0.0
09/08/2022,04:43:25,0.005,0.0,0.0,0.0
09/08/2022,04:44:26,0.003,0.0,0.0,0.0
09/08/2022,04:45:25,0.003,0.0,0.0,0.0
09/08/2022,04:46:25,0.004,0.0,0.0,0.0
09/08/2022,04:47:25,0.003,0.0,0.0,0.0
09/08/2022,04:48:26,0.004,0.0,0.0,0.0
09/08/2022,04:49:25,0.005,0.0,0.0,0.0
09/08/2022,04:50:25,0.005,0.0,0.0,0.0
09/08/2022,04:51:25,0.005,0.0,0.0,0.0
09/08/2022,04:52:25,0.005,0.0,0.0,0.0
09/08/2022,04:53:26,0.005,0.0,0.0,0.0
09/08/2022,04:54:25,0.005,0.0,0.0,0.0
09/08/2022,04:55:26,0.005,0.0,0.0,0.0
09/08/2022,04:56:25,0.006,0.0,0.0,0.0
09/08/2022,04:57:25,0.006,0.0,0.0,0.0
09/08/2022,04:58:26,0.006,0.0,0.0,0.0
09/08/2022,04:59:25,0.005,0.0,0.0,0.0
09/08/2022,05:00:25,0.006,0.0,0.0,0.0
09/08/2022,05:01:26,0.008,0.0,0.0,0.0
09/08/2022,05:02:25,0.007,0.0,0.0,0.0
09/08/2022,05:03:27,0.007,0.0,0.001,0.001
09/08/2022,05:04:25,0.008,0.0,0.001,0.0
09/08/2022,05:05:25,0.008,0.0,0.001,0.0
09/08/2022,05:06:25,0.008,0.0,0.001,0.0
09/08/2022,05:07:25,0.009,0.0,0.001,0.0
09/08/2022,05:08:25,0.008,0.0,0.001,0.0
09/08/2022,05:09:25,0.009,0.0,0.001,0.0
09/08/2022,05:10:25,0.009,0.0,0.002,0.001
09/08/2022,05:11:25,0.010,0.0,0.002,0.0
09/08/2022,05:12:26,0.010,0.0,0.002,0.0
09/08/2022,05:13:27,0.011,0.0,0.002,0.0
09/08/2022,05:14:25,0.011,0.0,0.002,0.0
09/08/2022,05:15:33,0.011,0.0,0.002,0.0
09/08/2022,05:16:25,0.013,0.0,0.003,0.001
09/08/2022,05:17:26,0.012,0.0,0.003,0.0
09/08/2022,05:18:25,0.013,0.0,0.003,0.0
09/08/2022,05:19:26,0.013,0.0,0.003,0.0
09/08/2022,05:20:26,0.014,0.0,0.003,0.0
09/08/2022,05:21:26,0.014,0.0,0.004,0.001
09/08/2022,05:22:25,0.015,0.0,0.004,0.0
09/08/2022,05:23:25,0.014,0.0,0.004,0.0
09/08/2022,05:24:25,0.016,0.0,0.004,0.0
09/08/2022,05:25:25,0.015,0.0,0.005,0.001
09/08/2022,05:26:33,0.017,0.0,0.005,0.0
09/08/2022,05:27:26,0.017,0.0,0.005,0.0
09/08/2022,05:28:26,0.017,0.0,0.006,0.001
09/08/2022,05:29:26,0.019,0.0,0.006,0.0
09/08/2022,05:30:26,0.019,0.0,0.006,0.0
09/08/2022,05:31:25,0.020,0.0,0.006,0.0
09/08/2022,05:32:25,0.020,0.0,0.007,0.001
09/08/2022,05:33:25,0.020,0.0,0.007,0.0
09/08/2022,05:34:25,0.022,0.0,0.007,0.0
09/08/2022,05:35:27,0.023,0.0,0.008,0.001
09/08/2022,05:36:25,0.023,0.0,0.008,0.0
09/08/2022,05:37:25,0.024,0.0,0.009,0.001
09/08/2022,05:38:26,0.024,0.0,0.009,0.0
09/08/2022,05:39:25,0.025,0.0,0.009,0.0
09/08/2022,05:40:26,0.026,0.0,0.01,0.001
09/08/2022,05:41:25,0.027,0.0,0.01,0.0
09/08/2022,05:42:26,0.027,0.0,0.011,0.001
09/08/2022,05:43:25,0.030,0.0,0.011,0.0
09/08/2022,05:44:26,0.030,0.0,0.012,0.001
09/08/2022,05:45:25,0.030,0.0,0.012,0.0
09/08/2022,05:46:25,0.032,0.0,0.013,0.001
09/08/2022,05:47:26,0.032,0.0,0.013,0.0
09/08/2022,05:48:25,0.033,0.0,0.014,0.001
09/08/2022,05:49:33,0.034,0.0,0.014,0.0
09/08/2022,05:50:26,0.035,0.0,0.015,0.001
09/08/2022,05:51:25,0.036,0.0,0.016,0.001
09/08/2022,05:52:34,0.038,0.0,0.016,0.0
09/08/2022,05:53:26,0.038,0.0,0.017,0.001
09/08/2022,05:54:25,0.041,0.0,0.017,0.0
09/08/2022,05:55:34,0.041,0.0,0.018,0.001
09/08/2022,05:56:26,0.041,0.0,0.019,0.001
09/08/2022,05:57:25,0.042,0.0,0.02,0.001
09/08/2022,05:58:34,0.044,0.0,0.02,0.0
09/08/2022,05:59:26,0.044,0.0,0.021,0.001
09/08/2022,06:00:25,0.045,0.0,0.022,0.001
09/08/2022,06:01:25,0.047,0.0,0.023,0.001
09/08/2022,06:02:26,0.049,0.0,0.023,0.0
09/08/2022,06:03:34,0.050,0.0,0.024,0.001
09/08/2022,06:04:26,0.051,0.0,0.025,0.001
09/08/2022,06:05:26,0.052,0.0,0.026,0.001
09/08/2022,06:06:26,0.054,0.0,0.027,0.001
09/08/2022,06:07:26,0.055,0.0,0.028,0.001
09/08/2022,06:08:25,0.057,0.0,0.029,0.001
09/08/2022,06:09:25,0.058,0.0,0.03,0.001
09/08/2022,06:10:26,0.059,0.0,0.031,0.001
09/08/2022,06:11:25,0.060,0.0,0.032,0.001
09/08/2022,06:12:26,0.063,0.0,0.033,0.001
09/08/2022,06:13:26,0.064,0.0,0.034,0.001
09/08/2022,06:14:26,0.065,0.0,0.035,0.001
09/08/2022,06:15:26,0.067,0.0,0.036,0.001
09/08/2022,06:16:26,0.069,0.0,0.037,0.001
09/08/2022,06:17:25,0.070,0.0,0.038,0.001
09/08/2022,06:18:34,0.072,0.0,0.04,0.002
09/08/2022,06:19:25,0.074,0.0,0.041,0.001
09/08/2022,06:20:25,0.075,0.0,0.042,0.001
09/08/2022,06:21:34,0.077,0.0,0.043,0.001
09/08/2022,06:22:26,0.079,0.0,0.044,0.001
09/08/2022,06:23:25,0.081,0.0,0.046,0.002
09/08/2022,06:24:26,0.083,0.0,0.047,0.001
09/08/2022,06:25:25,0.085,0.0,0.049,0.002
09/08/2022,06:26:25,0.086,0.0,0.05,0.001
09/08/2022,06:27:26,0.088,0.0,0.051,0.001
09/08/2022,06:28:26,0.090,0.0,0.053,0.002
09/08/2022,06:29:26,0.091,0.0,0.054,0.001
09/08/2022,06:30:26,0.094,0.0,0.056,0.002
09/08/2022,06:31:26,0.096,0.0,0.058,0.002
09/08/2022,06:32:34,0.100,0.0,0.059,0.001
09/08/2022,06:33:24,0.103,0.0,0.061,0.002
09/08/2022,06:34:25,0.106,0.0,0.063,0.002
09/08/2022,06:35:34,0.108,0.0,0.065,0.002
09/08/2022,06:36:26,0.110,0.0,0.066,0.001
09/08/2022,06:37:26,0.113,0.0,0.068,0.002
09/08/2022,06:38:26,0.115,0.0,0.07,0.002
09/08/2022,06:39:25,0.118,0.0,0.072,0.002
09/08/2022,06:40:26,0.120,0.0,0.074,0.002
09/08/2022,06:41:25,0.123,0.0,0.076,0.002
09/08/2022,06:42:26,0.125,0.0,0.078,0.002
09/08/2022,06:43:25,0.126,0.0,0.08,0.002
09/08/2022,06:44:25,0.130,0.0,0.082,0.002
09/08/2022,06:45:26,0.134,0.0,0.084,0.002
09/08/2022,06:46:25,0.135,0.0,0.087,0.003
09/08/2022,06:47:25,0.138,0.0,0.089,0.002
09/08/2022,06:48:26,0.141,0.0,0.091,0.002
09/08/2022,06:49:26,0.144,0.0,0.094,0.003
09/08/2022,06:50:25,0.147,0.0,0.096,0.002
09/08/2022,06:51:26,0.149,0.0,0.098,0.002
09/08/2022,06:52:26,0.153,0.0,0.101,0.003
09/08/2022,06:53:27,0.156,0.0,0.104,0.003
09/08/2022,06:54:26,0.160,0.0,0.106,0.002
09/08/2022,06:55:26,0.162,0.0,0.109,0.003
09/08/2022,06:56:25,0.163,0.0,0.112,0.003
09/08/2022,06:57:26,0.168,0.0,0.114,0.002
09/08/2022,06:58:25,0.171,0.0,0.117,0.003
09/08/2022,06:59:26,0.173,0.0,0.12,0.003
09/08/2022,07:00:26,0.177,0.0,0.123,0.003
09/08/2022,07:01:26,0.180,0.0,0.126,0.003
09/08/2022,07:02:26,0.183,0.0,0.129,0.003
09/08/2022,07:03:25,0.187,0.0,0.132,0.003
09/08/2022,07:04:26,0.191,0.0,0.135,0.003
09/08/2022,07:05:25,0.195,0.0,0.138,0.003
09/08/2022,07:06:34,0.197,0.0,0.142,0.004
09/08/2022,07:07:25,0.201,0.0,0.145,0.003
09/08/2022,07:08:26,0.205,0.0,0.148,0.003
09/08/2022,07:09:34,0.113,0.0,0.151,0.003
09/08/2022,07:10:34,0.155,0.0,0.154,0.003
09/08/2022,07:11:26,0.141,0.0,0.156,0.002
09/08/2022,07:12:25,0.218,1.0,0.159,0.003
09/08/2022,07:13:26,0.223,1.0,0.162,0.003
09/08/2022,07:14:25,0.227,1.0,0.166,0.004
09/08/2022,07:15:25,0.232,1.0,0.17,0.004
09/08/2022,07:16:25,0.236,1.0,0.174,0.004
09/08/2022,07:17:25,0.241,1.0,0.178,0.004
09/08/2022,07:18:25,0.245,1.0,0.182,0.004
09/08/2022,07:19:26,0.249,1.0,0.186,0.004
09/08/2022,07:20:25,0.255,1.0,0.19,0.004
09/08/2022,07:21:25,0.260,1.0,0.194,0.004
09/08/2022,07:22:26,0.263,1.0,0.199,0.005
09/08/2022,07:23:26,0.268,1.0,0.203,0.004
09/08/2022,07:24:26,0.273,1.0,0.208,0.005
09/08/2022,07:25:26,0.276,1.0,0.212,0.004
09/08/2022,07:26:26,0.280,1.0,0.217,0.005
09/08/2022,07:27:26,0.285,1.0,0.222,0.005
09/08/2022,07:28:25,0.290,1.0,0.226,0.004
09/08/2022,07:29:26,0.294,1.0,0.231,0.005
09/08/2022,07:30:26,0.298,1.0,0.236,0.005
09/08/2022,07:31:26,0.305,1.0,0.241,0.005
09/08/2022,07:32:25,0.309,1.0,0.246,0.005
09/08/2022,07:33:26,0.314,1.0,0.252,0.006
09/08/2022,07:34:25,0.319,1.0,0.257,0.005
09/08/2022,07:35:34,0.326,1.0,0.263,0.006
09/08/2022,07:36:26,0.330,1.0,0.268,0.005
09/08/2022,07:37:26,0.335,1.0,0.273,0.005
09/08/2022,07:38:25,0.339,1.0,0.279,0.006
09/08/2022,07:39:26,0.345,1.0,0.285,0.006
09/08/2022,07:40:26,0.351,1.0,0.29,0.005
09/08/2022,07:41:26,0.355,1.0,0.296,0.006
09/08/2022,07:42:26,0.361,1.0,0.302,0.006
09/08/2022,07:43:25,0.366,1.0,0.308,0.006
09/08/2022,07:44:26,0.371,1.0,0.314,0.006
09/08/2022,07:45:25,0.377,1.0,0.321,0.007
09/08/2022,07:46:25,0.382,1.0,0.327,0.006
09/08/2022,07:47:25,0.388,1.0,0.333,0.006
09/08/2022,07:48:26,0.393,1.0,0.34,0.007
09/08/2022,07:49:26,0.399,1.0,0.347,0.007
09/08/2022,07:50:25,0.404,1.0,0.353,0.006
09/08/2022,07:51:26,0.411,1.0,0.36,0.007
09/08/2022,07:52:26,0.416,1.0,0.367,0.007
09/08/2022,07:53:26,0.422,1.0,0.374,0.007
09/08/2022,07:54:26,0.429,1.0,0.381,0.007
09/08/2022,07:55:26,0.433,1.0,0.388,0.007
09/08/2022,07:56:26,0.440,1.0,0.395,0.007
09/08/2022,07:57:26,0.444,1.0,0.403,0.008
09/08/2022,07:58:26,0.452,1.0,0.41,0.007
09/08/2022,07:59:25,0.456,1.0,0.418,0.008
09/08/2022,08:00:27,0.462,1.0,0.426,0.008
09/08/2022,08:01:26,0.468,1.0,0.433,0.007
09/08/2022,08:02:26,0.475,1.0,0.441,0.008
09/08/2022,08:03:26,0.480,1.0,0.449,0.008
09/08/2022,08:04:26,0.487,1.0,0.457,0.008
09/08/2022,08:05:26,0.492,1.0,0.465,0.008
09/08/2022,08:06:26,0.498,1.0,0.474,0.009
09/08/2022,08:07:26,0.504,1.0,0.482,0.008
09/08/2022,08:08:26,0.511,1.0,0.49,0.008
09/08/2022,08:09:26,0.517,1.0,0.499,0.009
09/08/2022,08:10:26,0.526,1.0,0.508,0.009
09/08/2022,08:11:26,0.532,1.0,0.516,0.008
09/08/2022,08:12:34,0.539,1.0,0.527,0.011
09/08/2022,08:13:26,0.545,1.0,0.534,0.007
09/08/2022,08:14:26,0.552,1.0,0.543,0.009
09/08/2022,08:15:26,0.559,1.0,0.553,0.01
09/08/2022,08:16:25,0.564,1.0,0.562,0.009
09/08/2022,08:17:34,0.571,1.0,0.573,0.011
09/08/2022,08:18:25,0.577,1.0,0.581,0.008
09/08/2022,08:19:26,0.586,1.0,0.591,0.01
09/08/2022,08:20:26,0.592,1.0,0.601,0.01
09/08/2022,08:21:26,0.600,1.0,0.611,0.01
09/08/2022,08:22:26,0.609,1.0,0.621,0.01
09/08/2022,08:23:34,0.616,1.0,0.632,0.011
09/08/2022,08:24:26,0.621,1.0,0.641,0.009
09/08/2022,08:25:26,0.630,1.0,0.652,0.011
09/08/2022,08:26:34,0.636,1.0,0.664,0.012
09/08/2022,08:27:25,0.643,1.0,0.673,0.009
09/08/2022,08:28:25,0.651,1.0,0.684,0.011
09/08/2022,08:29:25,0.658,2.0,0.694,0.01
09/08/2022,08:30:26,0.664,2.0,0.706,0.012
09/08/2022,08:31:26,0.670,2.0,0.717,0.011
09/08/2022,08:32:26,0.678,2.0,0.728,0.011
09/08/2022,08:33:26,0.683,2.0,0.739,0.011
09/08/2022,08:34:26,0.693,2.0,0.751,0.012
09/08/2022,08:35:26,0.701,2.0,0.762,0.011
09/08/2022,08:36:26,0.706,2.0,0.774,0.012
09/08/2022,08:37:26,0.716,2.0,0.786,0.012
09/08/2022,08:38:26,0.724,2.0,0.798,0.012
09/08/2022,08:39:26,0.731,2.0,0.81,0.012
09/08/2022,08:40:26,0.740,2.0,0.822,0.012
09/08/2022,08:41:42,0.749,2.0,0.838,0.016
09/08/2022,08:43:26,0.761,2.0,0.86,0.022
09/08/2022,08:44:25,0.769,2.0,0.873,0.013
09/08/2022,08:45:26,0.778,2.0,0.886,0.013
09/08/2022,08:46:25,0.785,2.0,0.899,0.013
09/08/2022,08:47:26,0.794,2.0,0.912,0.013
09/08/2022,08:48:43,0.804,2.0,0.929,0.017
09/08/2022,08:50:26,0.820,2.0,0.952,0.023
09/08/2022,08:51:26,0.827,2.0,0.966,0.014
09/08/2022,08:52:25,0.835,2.0,0.98,0.014
09/08/2022,08:53:26,0.845,2.0,0.994,0.014
09/08/2022,08:54:26,0.852,2.0,1.008,0.014
09/08/2022,08:55:26,0.858,2.0,1.022,0.014
09/08/2022,08:56:26,0.867,2.0,1.036,0.014
09/08/2022,08:57:34,0.877,2.0,1.053,0.017
09/08/2022,08:58:25,0.885,2.0,1.066,0.013
09/08/2022,08:59:25,0.892,2.0,1.08,0.014
09/08/2022,09:00:34,0.900,2.0,1.097,0.017
09/08/2022,09:01:26,0.906,2.0,1.11,0.013
09/08/2022,09:02:26,0.915,2.0,1.126,0.016
09/08/2022,09:03:27,0.925,2.0,1.141,0.015
09/08/2022,09:04:26,0.935,2.0,1.156,0.015
09/08/2022,09:05:34,0.944,2.0,1.174,0.018
09/08/2022,09:06:26,0.950,2.0,1.188,0.014
09/08/2022,09:07:26,0.958,2.0,1.204,0.016
09/08/2022,09:08:26,0.965,2.0,1.22,0.016
09/08/2022,09:09:26,0.975,2.0,1.236,0.016
09/08/2022,09:10:25,0.982,2.0,1.252,0.016
09/08/2022,09:11:26,0.990,2.0,1.269,0.017
09/08/2022,09:12:25,0.999,2.0,1.285,0.016
09/08/2022,09:13:25,1.007,2.0,1.302,0.017
09/08/2022,09:14:26,1.016,2.0,1.319,0.017
09/08/2022,09:15:26,1.024,2.0,1.336,0.017
09/08/2022,09:16:26,1.033,2.0,1.353,0.017
09/08/2022,09:17:26,1.041,2.0,1.37,0.017
09/08/2022,09:18:26,1.049,2.0,1.388,0.018
09/08/2022,09:19:26,1.058,2.0,1.405,0.017
09/08/2022,09:20:26,1.067,2.0,1.423,0.018
09/08/2022,09:21:25,1.075,2.0,1.441,0.018
09/08/2022,09:22:26,1.083,2.0,1.459,0.018
09/08/2022,09:23:26,1.089,3.0,1.477,0.018
09/08/2022,09:24:26,1.101,3.0,1.495,0.018
09/08/2022,09:25:26,1.109,3.0,1.514,0.019
09/08/2022,09:26:26,1.118,3.0,1.532,0.018
09/08/2022,09:27:26,1.126,3.0,1.551,0.019
09/08/2022,09:28:26,1.134,3.0,1.57,0.019
09/08/2022,09:29:26,1.143,3.0,1.589,0.019
09/08/2022,09:30:26,1.151,3.0,1.608,0.019
09/08/2022,09:31:26,1.160,3.0,1.627,0.019
09/08/2022,09:32:26,1.170,3.0,1.647,0.02
09/08/2022,09:33:26,1.180,3.0,1.666,0.019
09/08/2022,09:34:26,1.189,3.0,1.686,0.02
09/08/2022,09:35:25,1.196,3.0,1.706,0.02
09/08/2022,09:36:26,1.205,3.0,1.726,0.02
09/08/2022,09:37:26,1.214,3.0,1.746,0.02
09/08/2022,09:38:26,1.224,3.0,1.766,0.02
09/08/2022,09:39:42,1.235,3.0,1.792,0.026
09/08/2022,09:41:28,1.250,3.0,1.829,0.037
09/08/2022,09:42:26,1.259,3.0,1.849,0.02
09/08/2022,09:43:35,1.268,3.0,1.873,0.024
09/08/2022,09:44:26,1.275,3.0,1.891,0.018
09/08/2022,09:45:26,1.284,3.0,1.913,0.022
09/08/2022,09:46:26,1.293,3.0,1.934,0.021
09/08/2022,09:47:26,1.302,3.0,1.956,0.022
09/08/2022,09:48:25,1.307,3.0,1.977,0.021
09/08/2022,09:49:25,1.317,3.0,1.999,0.022
09/08/2022,09:50:34,1.325,3.0,2.024,0.025
09/08/2022,09:51:26,1.335,3.0,2.043,0.019
09/08/2022,09:52:26,1.343,3.0,2.066,0.023
09/08/2022,09:53:34,1.333,3.0,2.091,0.025
09/08/2022,09:54:25,1.354,3.0,2.11,0.019
09/08/2022,09:55:26,1.362,3.0,2.133,0.023
09/08/2022,09:56:26,1.347,3.0,2.156,0.023
09/08/2022,09:57:33,1.377,3.0,2.181,0.025
09/08/2022,09:58:26,1.385,3.0,2.201,0.02
09/08/2022,09:59:25,1.392,3.0,2.225,0.024
09/08/2022,10:00:26,1.398,3.0,2.248,0.023
09/08/2022,10:01:26,1.408,3.0,2.271,0.023
09/08/2022,10:02:26,1.414,3.0,2.295,0.024
09/08/2022,10:03:26,1.419,3.0,2.318,0.023
09/08/2022,10:04:26,1.428,3.0,2.342,0.024
09/08/2022,10:05:26,1.438,3.0,2.366,0.024
09/08/2022,10:06:26,1.450,3.0,2.39,0.024
09/08/2022,10:07:26,1.458,3.0,2.414,0.024
09/08/2022,10:08:26,1.464,3.0,2.439,0.025
09/08/2022,10:09:34,1.472,3.0,2.466,0.027
09/08/2022,10:10:26,1.483,3.0,2.488,0.022
09/08/2022,10:11:26,1.488,3.0,2.512,0.024
09/08/2022,10:12:36,1.494,3.0,2.541,0.029
09/08/2022,10:13:25,1.499,3.0,2.562,0.021
09/08/2022,10:14:26,1.507,3.0,2.587,0.025